This demonstration page uses our WeatherBlox Daily Observations layout. Learn more.

Left ArrowRight Arrow

Hourly Observations for June 27, 2021

Temp ( °F °C ) Dew Point ( °F °C ) Humidity (%) Winds ( mph kmh ) Pressure ( in mb ) Visibility ( mi km ) Precip ( " mm )
12:15 am 00:15 Clear 64 17.7 59 15 84 84 N N/A 29.94 1014 10 16 N/A
12:35 am 00:35 Clear 63 17.4 59 15.1 86 86 N N/A 29.94 1014 7 11 N/A
12:55 am 00:55 Clear 64 17.5 60 15.3 87 87 N N/A 29.94 1014 10 16 N/A
1:15 am 01:15 Clear 61 16.1 58 14.6 91 91 N N/A 29.95 1014 10 16 N/A
1:35 am 01:35 Clear 61 15.9 57 14 89 89 N N/A 29.95 1014 10 16 N/A
1:55 am 01:55 Clear 59 14.9 56 13.2 90 90 N N/A 29.95 1014 10 16 N/A
2:15 am 02:15 Clear 59 14.8 57 14 95 95 N N/A 29.94 1014 7 11 N/A
2:35 am 02:35 Clear 58 14.5 56 13.5 94 94 N N/A 29.94 1014 7 11 N/A
2:55 am 02:55 Clear 57 14.1 56 13.2 94 94 N N/A 29.95 1014 7 11 N/A
3:15 am 03:15 Clear 58 14.2 56 13.5 96 96 WNW 5 7 29.96 1014 7 11 N/A
3:35 am 03:35 Clear 58 14.6 57 13.8 95 95 NW 3 6 29.95 1014 7 11 N/A
3:55 am 03:55 Clear with Mist and Fog 57 13.8 55 13 95 95 N N/A 29.96 1015 5 8 N/A
4:15 am 04:15 Clear with Mist and Fog 58 14.4 57 13.7 96 96 N N/A 29.96 1015 5 8 N/A
4:35 am 04:35 Clear with Mist and Fog 57 14 56 13.2 95 95 N N/A 29.96 1014 5 8 N/A
4:55 am 04:55 Clear with Mist and Fog 57 13.9 56 13.3 96 96 N N/A 29.97 1015 4 6 N/A
5:15 am 05:15 Clear with Mist and Fog 57 13.7 56 13.1 96 96 NW 3 6 29.97 1015 5 8 N/A
5:35 am 05:35 Clear 57 14 55 12.7 92 92 N N/A 29.96 1014 10 16 N/A
5:55 am 05:55 Clear 58 14.4 55 12.6 89 89 N N/A 29.96 1015 10 16 N/A
6:15 am 06:15 Sunny 56 13.6 53 11.9 90 90 N N/A 29.98 1015 7 11 N/A
6:35 am 06:35 Sunny 56 13.3 54 12 92 92 N N/A 29.99 1016 7 11 N/A
6:55 am 06:55 Sunny 58 14.3 55 12.7 90 90 N N/A 29.99 1015 10 16 N/A
7:15 am 07:15 Sunny 59 14.9 56 13.3 90 90 N N/A 29.98 1015 10 16 N/A
7:35 am 07:35 Sunny 60 15.5 56 13.3 87 87 NNW 3 6 29.98 1015 10 16 N/A
7:55 am 07:55 Sunny 62 16.4 57 14.1 86 86 N 3 6 29.98 1015 10 16 N/A
8:15 am 08:15 Sunny 63 17.2 58 14.5 84 84 NNW 5 7 29.98 1015 10 16 N/A
8:35 am 08:35 Sunny 64 17.7 59 14.9 84 84 N 5 7 29.98 1015 10 16 N/A
8:55 am 08:55 Sunny 65 18.2 59 15.2 83 83 N 3 6 29.97 1015 10 16 N/A
9:15 am 09:15 Sunny 67 19.2 60 15.8 81 81 NNE 3 6 29.96 1015 10 16 N/A
9:35 am 09:35 Sunny 69 20.4 61 16.2 77 77 NE 3 6 29.95 1014 10 16 N/A
9:55 am 09:55 Partly Cloudy 71 21.4 62 16.4 73 73 N N/A 29.96 1014 10 16 N/A
10:15 am 10:15 Mostly Cloudy 73 22.5 61 16.2 68 68 NE 5 7 29.94 1014 10 16 N/A
10:35 am 10:35 Partly Cloudy 73 22.8 61 16.2 66 66 NNE 3 6 29.93 1014 10 16 N/A
10:55 am 10:55 Sunny 74 23.6 60 15.7 61 61 NE 3 6 29.93 1013 10 16 N/A
11:15 am 11:15 Sunny 76 24.2 58 14.7 55 55 SE 3 6 29.92 1013 7 11 N/A
11:35 am 11:35 Sunny 76 24.5 57 13.8 51 51 SSW 3 6 29.92 1013 10 16 N/A
11:55 am 11:55 Sunny 78 25.4 58 14.7 52 52 SSE 5 7 29.91 1013 10 16 N/A
12:15 pm 12:15 Sunny 78 25.4 57 13.8 49 49 N N/A 29.91 1013 10 16 N/A
12:35 pm 12:35 Sunny 79 26 58 14.2 48 48 SE 3 6 29.90 1012 10 16 N/A
12:55 pm 12:55 Partly Cloudy 80 26.5 57 13.8 46 46 N N/A 29.89 1012 10 16 N/A
1:15 pm 13:15 Partly Cloudy 80 26.9 55 12.5 41 41 SSW 6 9 29.88 1012 10 16 N/A
1:35 pm 13:35 Partly Cloudy 79 26.2 55 12.8 43 43 W 3 6 29.89 1012 10 16 N/A
1:55 pm 13:55 Partly Cloudy 80 26.6 51 10.7 37 37 W 5 7 29.88 1012 10 16 N/A
2:15 pm 14:15 Sunny 80 26.6 53 11.4 39 39 W 6 9 29.88 1012 10 16 N/A
2:35 pm 14:35 Partly Cloudy 82 27.7 53 11.5 37 37 W 7 11 29.87 1011 10 16 N/A
2:55 pm 14:55 Mostly Cloudy 83 28.1 54 12.1 37 37 WSW 3 6 29.87 1012 10 16 N/A
3:15 pm 15:15 Cloudy 80 26.6 57 13.7 45 45 NNE 12 19 29.87 1012 10 16 N/A
3:35 pm 15:35 Cloudy 77 25 59 15 54 54 NNE 15 24 29.90 1012 10 16 N/A
3:55 pm 15:55 Mostly Cloudy 74 23.3 60 15.5 62 62 NE 15 24 29.91 1013 10 16 N/A
4:15 pm 16:15 Mostly Cloudy 75 23.8 60 15.6 60 60 NE 13 20 29.91 1013 10 16 N/A
4:35 pm 16:35 Partly Cloudy 76 24.4 60 15.3 57 57 ENE 12 19 29.90 1013 10 16 N/A
4:55 pm 16:55 Partly Cloudy 76 24.4 60 15.4 57 57 ENE 14 22 29.90 1013 10 16 N/A
5:15 pm 17:15 Sunny 76 24.6 60 15.8 58 58 ENE 13 20 29.90 1013 10 16 N/A
5:35 pm 17:35 Sunny 77 25 58 14.7 53 53 ENE 12 19 29.89 1012 10 16 N/A
5:55 pm 17:55 Sunny 77 24.9 59 14.9 54 54 ENE 9 15 29.89 1012 10 16 N/A
6:15 pm 18:15 Sunny 78 25.4 60 15.3 54 54 ENE 12 19 29.88 1012 10 16 N/A
6:35 pm 18:35 Sunny 77 25 59 14.8 53 53 ENE 12 19 29.89 1012 10 16 N/A
6:55 pm 18:55 Sunny 77 25.1 59 15.2 54 54 E 9 15 29.89 1012 10 16 N/A
7:15 pm 19:15 Sunny 77 25.1 60 15.6 56 56 E 9 15 29.89 1012 10 16 N/A
7:35 pm 19:35 Sunny 77 25.1 59 15.1 54 54 E 9 15 29.90 1012 10 16 N/A
7:55 pm 19:55 Partly Cloudy 76 24.6 58 14.6 54 54 E 9 15 29.90 1013 10 16 N/A
8:15 pm 20:15 Partly Cloudy 76 24.3 59 15.1 57 57 E 9 15 29.91 1013 10 16 N/A
8:35 pm 20:35 Mostly Cloudy 74 23.5 59 15 59 59 E 8 13 29.93 1013 10 16 N/A
8:55 pm 20:55 Cloudy 73 23 59 15.1 61 61 E 7 11 29.93 1014 10 16 N/A
9:15 pm 21:15 Partly Cloudy 72 22.3 59 15.2 64 64 E 6 9 29.94 1014 10 16 N/A
9:35 pm 21:35 Mostly Cloudy with Light Rain 71 21.5 61 16.1 71 71 E 7 11 29.94 1014 10 16 N/A
9:55 pm 21:55 Cloudy 71 21.5 62 16.6 74 74 ESE 7 11 29.94 1014 10 16 N/A
10:15 pm 22:15 Mostly Cloudy 69 20.7 62 16.5 77 77 ESE 8 13 29.96 1015 10 16 N/A
10:35 pm 22:35 Partly Cloudy 69 20.4 61 16 76 76 ESE 5 7 29.97 1015 10 16 N/A
10:55 pm 22:55 Mostly Cloudy 69 20.3 62 16.5 79 79 ESE 5 7 29.97 1015 10 16 N/A
11:15 pm 23:15 Cloudy 69 20.5 62 16.5 78 78 ESE 5 7 29.97 1015 10 16 N/A
11:35 pm 23:35 Cloudy 69 20.7 61 16.3 76 76 SE 6 9 29.98 1015 10 16 N/A
11:55 pm 23:55 Mostly Cloudy 68 20 62 16.6 81 81 SSE 3 6 29.99 1015 10 16 N/A

Powered by AerisWeather